| time (UTC) | temp F | wind direction | speed MPH | gust MPH | rain 1hr in | rain 24hr in | rain mn in | humidity % | barometer mb |
| 20260507090024 | 61 | 163 | 6.0 | 11.0 | 0.00 | 0.00 | 0.00 | 63 | 1025.8 |
| 20260507085503 | 60 | 157 | 6.0 | 11.0 | 0.00 | 0.00 | 0.00 | 65 | 1026.0 |
| 20260507085003 | 60 | 166 | 6.0 | 11.0 | 0.00 | 0.00 | 0.00 | 66 | 1025.7 |
| 20260507084503 | 60 | 179 | 6.0 | 13.0 | 0.00 | 0.00 | 0.00 | 66 | 1026.1 |
| 20260507084003 | 59 | 175 | 7.0 | 13.0 | 0.00 | 0.00 | 0.00 | 67 | 1026.0 |
| 20260507083503 | 60 | 167 | 7.0 | 12.0 | 0.00 | 0.00 | 0.00 | 68 | 1025.5 |
| 20260507083003 | 59 | 158 | 8.0 | 13.0 | 0.00 | 0.00 | 0.00 | 70 | 1025.6 |
| 20260507082503 | 58 | 144 | 6.0 | 13.0 | 0.00 | 0.00 | 0.00 | 71 | 1026.0 |
| 20260507082003 | 57 | 124 | 5.0 | 9.0 | 0.00 | 0.00 | 0.00 | 74 | 1025.6 |
| 20260507081503 | 57 | 144 | 5.0 | 9.0 | 0.00 | 0.00 | 0.00 | 74 | 1025.6 |
| 20260507081003 | 57 | 183 | 5.0 | 13.0 | 0.00 | 0.00 | 0.00 | 74 | 1026.2 |
| 20260507080503 | 57 | 188 | 7.0 | 13.0 | 0.00 | 0.00 | 0.00 | 72 | 1026.1 |
| 20260507080003 | 57 | 184 | 7.0 | 13.0 | 0.00 | 0.00 | 0.00 | 73 | 1025.8 |
| 20260507075503 | 57 | 185 | 8.0 | 15.0 | 0.00 | 0.00 | 0.00 | 72 | 1025.8 |
| 20260507075003 | 57 | 202 | 10.0 | 19.0 | 0.00 | 0.00 | 0.00 | 73 | 1025.8 |
| 20260507074503 | 57 | 200 | 8.0 | 19.0 | 0.00 | 0.00 | 0.00 | 73 | 1025.7 |
| 20260507074024 | 57 | 180 | 6.0 | 12.0 | 0.00 | 0.00 | 0.00 | 75 | 1025.7 |
| 20260507073503 | 57 | 182 | 7.0 | 13.0 | 0.00 | 0.00 | 0.00 | 74 | 1025.8 |
| 20260507073003 | 57 | 172 | 7.0 | 14.0 | 0.00 | 0.00 | 0.00 | 76 | 1025.7 |
| 20260507072503 | 56 | 163 | 7.0 | 14.0 | 0.00 | 0.00 | 0.00 | 77 | 1025.5 |
| 20260507072003 | 56 | 164 | 8.0 | 14.0 | 0.00 | 0.00 | 0.00 | 78 | 1025.5 |
| 20260507071503 | 56 | 164 | 8.0 | 14.0 | 0.00 | 0.00 | 0.00 | 78 | 1025.5 |
| 20260507071003 | 56 | 160 | 7.0 | 13.0 | 0.00 | 0.00 | 0.00 | 78 | 1025.5 |
| 20260507070503 | 55 | 158 | 7.0 | 14.0 | 0.00 | 0.00 | 0.00 | 79 | 1025.3 |
| 20260507070005 | 55 | 162 | 7.0 | 14.0 | 0.00 | 0.00 | 0.00 | 80 | 1025.4 |
| 20260507065504 | 55 | 158 | 7.0 | 12.0 | 0.00 | 0.00 | 0.00 | 80 | 1025.2 |
| 20260507065003 | 55 | 163 | 6.0 | 11.0 | 0.00 | 0.00 | 0.00 | 80 | 1025.4 |
| 20260507064524 | 54 | 157 | 7.0 | 18.0 | 0.00 | 0.00 | 0.00 | 81 | 1025.5 |
| 20260507064004 | 54 | 151 | 8.0 | 18.0 | 0.00 | 0.00 | 0.00 | 81 | 1025.2 |
| 20260507063503 | 54 | 152 | 7.0 | 14.0 | 0.00 | 0.00 | 0.00 | 81 | 1025.3 |
| 20260507063024 | 54 | 150 | 7.0 | 12.0 | 0.00 | 0.00 | 0.00 | 83 | 1025.2 |
| 20260507062503 | 53 | 149 | 6.0 | 13.0 | 0.00 | 0.00 | 0.00 | 83 | 1025.3 |
| 20260507062003 | 53 | 149 | 6.0 | 13.0 | 0.00 | 0.00 | 0.00 | 84 | 1025.2 |
| 20260507061503 | 52 | 148 | 6.0 | 12.0 | 0.00 | 0.00 | 0.00 | 85 | 1025.3 |
| 20260507061003 | 52 | 147 | 6.0 | 12.0 | 0.00 | 0.00 | 0.00 | 85 | 1025.3 |
| 20260507060503 | 52 | 139 | 5.0 | 11.0 | 0.00 | 0.00 | 0.00 | 85 | 1025.3 |
| 20260507060003 | 52 | 134 | 5.0 | 11.0 | 0.00 | 0.00 | 0.00 | 85 | 1025.0 |
| 20260507055503 | 52 | 150 | 5.0 | 11.0 | 0.00 | 0.00 | 0.00 | 85 | 1025.2 |
| 20260507055003 | 52 | 155 | 6.0 | 12.0 | 0.00 | 0.00 | 0.00 | 86 | 1024.9 |
| 20260507054503 | 52 | 151 | 6.0 | 12.0 | 0.00 | 0.00 | 0.00 | 86 | 1024.9 |
| 20260507054024 | 52 | 152 | 5.0 | 11.0 | 0.00 | 0.00 | 0.00 | 86 | 1024.9 |
| 20260507053503 | 52 | 149 | 4.0 | 8.0 | 0.00 | 0.00 | 0.00 | 87 | 1024.9 |
| 20260507053003 | 51 | 127 | 3.0 | 6.0 | 0.00 | 0.00 | 0.00 | 87 | 1024.9 |
| 20260507052503 | 51 | 115 | 3.0 | 6.0 | 0.00 | 0.00 | 0.00 | 87 | 1024.9 |
| 20260507052024 | 51 | 121 | 3.0 | 6.0 | 0.00 | 0.00 | 0.00 | 86 | 1024.9 |
| 20260507051503 | 51 | 107 | 3.0 | 6.0 | 0.00 | 0.00 | 0.00 | 86 | 1024.8 |
| 20260507051003 | 51 | 67 | 3.0 | 5.0 | 0.00 | 0.00 | 0.00 | 86 | 1025.0 |
| 20260507050524 | 51 | 37 | 2.0 | 5.0 | 0.00 | 0.00 | 0.00 | 86 | 1024.8 |
| 20260507050003 | 51 | 19 | 2.0 | 6.0 | 0.00 | 0.00 | 0.00 | 86 | 1024.9 |
| 20260507045503 | 51 | 13 | 3.0 | 6.0 | 0.00 | 0.00 | 0.00 | 86 | 1024.7 |
| 20260507045003 | 51 | 6 | 3.0 | 6.0 | 0.00 | 0.00 | 0.00 | 85 | 1024.9 |
| 20260507044503 | 52 | 356 | 3.0 | 6.0 | 0.00 | 0.00 | 0.00 | 85 | 1024.8 |
| 20260507044003 | 52 | 302 | 2.0 | 4.0 | 0.00 | 0.00 | 0.00 | 84 | 1024.7 |
| 20260507043503 | 52 | 208 | 1.0 | 4.0 | 0.00 | 0.00 | 0.00 | 85 | 1024.5 |
| 20260507043004 | 52 | 292 | 2.0 | 5.0 | 0.00 | 0.00 | 0.00 | 85 | 1024.5 |
| 20260507042503 | 52 | 327 | 2.0 | 5.0 | 0.00 | 0.00 | 0.00 | 85 | 1024.7 |
| 20260507042003 | 52 | 245 | 2.0 | 4.0 | 0.00 | 0.00 | 0.00 | 84 | 1024.6 |
| 20260507041503 | 52 | 231 | 2.0 | 5.0 | 0.00 | 0.00 | 0.00 | 83 | 1024.7 |
| 20260507041003 | 52 | 204 | 3.0 | 9.0 | 0.00 | 0.00 | 0.00 | 83 | 1024.6 |
| 20260507040503 | 53 | 189 | 4.0 | 9.0 | 0.00 | 0.00 | 0.00 | 82 | 1024.6 |
| 20260507040003 | 53 | 183 | 4.0 | 7.0 | 0.00 | 0.00 | 0.00 | 82 | 1024.7 |
| 20260507035503 | 53 | 174 | 3.0 | 7.0 | 0.00 | 0.00 | 0.00 | 82 | 1024.6 |
| 20260507035003 | 53 | 167 | 4.0 | 7.0 | 0.00 | 0.00 | 0.00 | 81 | 1024.8 |
| 20260507034503 | 53 | 162 | 3.0 | 7.0 | 0.00 | 0.00 | 0.00 | 82 | 1024.9 |
| 20260507034003 | 53 | 159 | 3.0 | 6.0 | 0.00 | 0.00 | 0.00 | 81 | 1024.5 |
| 20260507033503 | 53 | 164 | 4.0 | 8.0 | 0.00 | 0.00 | 0.00 | 82 | 1024.7 |
| 20260507033024 | 53 | 162 | 4.0 | 10.0 | 0.00 | 0.00 | 0.00 | 81 | 1024.8 |
| 20260507032504 | 53 | 165 | 5.0 | 10.0 | 0.00 | 0.00 | 0.00 | 81 | 1024.6 |
| 20260507032003 | 53 | 169 | 5.0 | 10.0 | 0.00 | 0.00 | 0.00 | 81 | 1024.8 |
| 20260507031503 | 53 | 171 | 5.0 | 9.0 | 0.00 | 0.00 | 0.00 | 80 | 1024.7 |
| 20260507031003 | 53 | 168 | 4.0 | 8.0 | 0.00 | 0.00 | 0.00 | 80 | 1024.6 |
| 20260507030503 | 53 | 164 | 5.0 | 8.0 | 0.00 | 0.00 | 0.00 | 80 | 1024.6 |
| 20260507030004 | 52 | 175 | 4.0 | 8.0 | 0.00 | 0.00 | 0.00 | 80 | 1024.6 |
| 20260507025504 | 51 | 210 | 3.0 | 6.0 | 0.00 | 0.00 | 0.00 | 78 | 1024.6 |
| 20260507025003 | 51 | 234 | 3.0 | 6.0 | 0.00 | 0.00 | 0.00 | 74 | 1024.7 |
| 20260507024503 | 51 | 263 | 3.0 | 6.0 | 0.00 | 0.00 | 0.00 | 69 | 1024.8 |
| 20260507024003 | 51 | 249 | 3.0 | 6.0 | 0.00 | 0.00 | 0.00 | 68 | 1024.8 |
| 20260507023503 | 51 | 211 | 2.0 | 4.0 | 0.00 | 0.00 | 0.00 | 70 | 1024.9 |
| 20260507023003 | 51 | 197 | 1.0 | 2.0 | 0.00 | 0.00 | 0.00 | 72 | 1025.0 |
| 20260507022503 | 51 | 17 | 1.0 | 2.0 | 0.00 | 0.00 | 0.00 | 67 | 1024.8 |
| 20260507022024 | 51 | 45 | 1.0 | 4.0 | 0.00 | 0.00 | 0.00 | 65 | 1024.8 |
| 20260507021503 | 51 | 124 | 2.0 | 4.0 | 0.00 | 0.00 | 0.00 | 62 | 1024.9 |
| 20260507021003 | 51 | 139 | 3.0 | 5.0 | 0.00 | 0.00 | 0.00 | 61 | 1024.9 |
| 20260507020503 | 51 | 141 | 3.0 | 6.0 | 0.00 | 0.00 | 0.00 | 60 | 1024.8 |
| 20260507020004 | 51 | 142 | 4.0 | 6.0 | 0.00 | 0.00 | 0.00 | 59 | 1024.9 |
| 20260507015503 | 51 | 139 | 3.0 | 6.0 | 0.00 | 0.00 | 0.00 | 57 | 1024.8 |
| 20260507015003 | 52 | 118 | 3.0 | 6.0 | 0.00 | 0.00 | 0.00 | 56 | 1024.9 |
| 20260507014503 | 53 | 96 | 2.0 | 5.0 | 0.00 | 0.00 | 0.00 | 54 | 1025.1 |
| 20260507014003 | 54 | 157 | 2.0 | 6.0 | 0.00 | 0.00 | 0.00 | 51 | 1024.8 |
| 20260507013503 | 54 | 140 | 4.0 | 7.0 | 0.00 | 0.00 | 0.00 | 50 | 1024.6 |
| 20260507013004 | 54 | 96 | 4.0 | 7.0 | 0.00 | 0.00 | 0.00 | 51 | 1024.9 |
| 20260507012524 | 53 | 54 | 3.0 | 5.0 | 0.00 | 0.00 | 0.00 | 52 | 1024.7 |
| 20260507012003 | 54 | 358 | 2.0 | 4.0 | 0.00 | 0.00 | 0.00 | 52 | 1024.9 |
| 20260507011503 | 55 | 237 | 2.0 | 4.0 | 0.00 | 0.00 | 0.00 | 50 | 1024.8 |
| 20260507011003 | 54 | 176 | 2.0 | 4.0 | 0.00 | 0.00 | 0.00 | 51 | 1024.9 |
| 20260507010524 | 53 | 118 | 2.0 | 4.0 | 0.00 | 0.00 | 0.00 | 53 | 1025.2 |
| 20260507010003 | 54 | 154 | 2.0 | 3.0 | 0.00 | 0.00 | 0.00 | 52 | 1025.1 |
| 20260507005503 | 54 | 158 | 3.0 | 4.0 | 0.00 | 0.00 | 0.00 | 51 | 1025.0 |
| 20260507005003 | 54 | 144 | 2.0 | 4.0 | 0.00 | 0.00 | 0.00 | 52 | 1025.0 |
| 20260507004503 | 55 | 163 | 2.0 | 4.0 | 0.00 | 0.00 | 0.00 | 50 | 1025.2 |
| 20260507004003 | 55 | 198 | 1.0 | 4.0 | 0.00 | 0.00 | 0.00 | 49 | 1025.1 |
| 20260507003504 | 55 | 210 | 1.0 | 3.0 | 0.00 | 0.00 | 0.00 | 49 | 1025.2 |
| 20260507003025 | 55 | 227 | 1.0 | 3.0 | 0.00 | 0.00 | 0.00 | 49 | 1025.2 |
| 20260507002524 | 55 | 235 | 1.0 | 4.0 | 0.00 | 0.00 | 0.00 | 50 | 1025.2 |
| 20260507002003 | 55 | 215 | 1.0 | 4.0 | 0.00 | 0.00 | 0.00 | 50 | 1025.5 |
| 20260507001503 | 55 | 227 | 1.0 | 4.0 | 0.00 | 0.00 | 0.00 | 51 | 1025.3 |
| 20260507001003 | 54 | 227 | 1.0 | 4.0 | 0.00 | 0.00 | 0.00 | 51 | 1025.5 |
| 20260507000524 | 54 | 233 | 1.0 | 4.0 | 0.00 | 0.00 | 0.00 | 52 | 1025.4 |
| 20260507000003 | 54 | 250 | 2.0 | 3.0 | 0.00 | 0.00 | 0.00 | 52 | 1025.4 |
| 20260506235503 | 54 | 249 | 2.0 | 3.0 | 0.00 | 0.00 | 0.00 | 52 | 1025.4 |
| 20260506235003 | 54 | 235 | 2.0 | 4.0 | 0.00 | 0.00 | 0.00 | 52 | 1025.0 |
| 20260506234503 | 55 | 228 | 2.0 | 5.0 | 0.00 | 0.00 | 0.00 | 51 | 1025.4 |
| 20260506234003 | 55 | 240 | 2.0 | 5.0 | 0.00 | 0.00 | 0.00 | 51 | 1025.3 |
| 20260506233503 | 55 | 250 | 2.0 | 4.0 | 0.00 | 0.00 | 0.00 | 50 | 1025.7 |
| 20260506233003 | 56 | 237 | 2.0 | 4.0 | 0.00 | 0.00 | 0.00 | 49 | 1025.6 |
| 20260506232524 | 56 | 237 | 1.0 | 4.0 | 0.00 | 0.00 | 0.00 | 48 | 1025.6 |
| 20260506232003 | 56 | 19 | 1.0 | 3.0 | 0.00 | 0.00 | 0.00 | 48 | 1025.6 |
| 20260506231503 | 56 | 57 | 1.0 | 2.0 | 0.00 | 0.00 | 0.00 | 47 | 1025.4 |
| 20260506231003 | 57 | 139 | 1.0 | 2.0 | 0.00 | 0.00 | 0.00 | 46 | 1025.4 |
| 20260506230503 | 57 | 165 | 0.0 | 2.0 | 0.00 | 0.00 | 0.00 | 45 | 1025.6 |
| 20260506230024 | 57 | 194 | 1.0 | 3.0 | 0.00 | 0.00 | 0.00 | 45 | 1025.5 |
| 20260506225524 | 58 | 194 | 1.0 | 3.0 | 0.00 | 0.00 | 0.00 | 44 | 1025.5 |
| 20260506225003 | 57 | 196 | 1.0 | 3.0 | 0.00 | 0.00 | 0.00 | 44 | 1025.4 |
| 20260506224503 | 57 | 210 | 1.0 | 3.0 | 0.00 | 0.00 | 0.00 | 45 | 1025.4 |
| 20260506224003 | 57 | 215 | 1.0 | 2.0 | 0.00 | 0.00 | 0.00 | 45 | 1025.4 |
| 20260506223503 | 57 | 204 | 0.0 | 2.0 | 0.00 | 0.00 | 0.00 | 46 | 1025.4 |
| 20260506223003 | 57 | 337 | 0.0 | 3.0 | 0.00 | 0.00 | 0.00 | 46 | 1025.3 |
| 20260506222503 | 57 | 335 | 1.0 | 3.0 | 0.00 | 0.00 | 0.00 | 46 | 1025.2 |
| 20260506222003 | 57 | 342 | 1.0 | 3.0 | 0.00 | 0.00 | 0.00 | 46 | 1025.4 |
| 20260506221524 | 58 | 357 | 0.0 | 2.0 | 0.00 | 0.00 | 0.00 | 45 | 1025.4 |
| 20260506221003 | 58 | 138 | 0.0 | 2.0 | 0.00 | 0.00 | 0.00 | 43 | 1025.6 |
| 20260506220503 | 59 | 171 | 0.0 | 2.0 | 0.00 | 0.00 | 0.00 | 42 | 1025.2 |
| 20260506220004 | 59 | 218 | 1.0 | 2.0 | 0.00 | 0.00 | 0.00 | 42 | 1025.3 |
| 20260506215524 | 60 | 220 | 1.0 | 2.0 | 0.00 | 0.00 | 0.00 | 41 | 1025.5 |
| 20260506215003 | 60 | 182 | 0.0 | 2.0 | 0.00 | 0.00 | 0.00 | 40 | 1025.4 |
| 20260506214503 | 60 | 185 | 0.0 | 2.0 | 0.00 | 0.00 | 0.00 | 39 | 1025.5 |
| 20260506214003 | 61 | 178 | 0.0 | 2.0 | 0.00 | 0.00 | 0.00 | 39 | 1025.5 |
| 20260506213524 | 61 | 134 | 0.0 | 2.0 | 0.00 | 0.00 | 0.00 | 38 | 1025.4 |
| 20260506213003 | 61 | 89 | 0.0 | 1.0 | 0.00 | 0.00 | 0.00 | 38 | 1025.3 |
| 20260506212524 | 61 | 119 | 1.0 | 4.0 | 0.00 | 0.00 | 0.00 | 38 | 1025.4 |
| 20260506212003 | 61 | 127 | 2.0 | 5.0 | 0.00 | 0.00 | 0.00 | 38 | 1025.5 |
| 20260506211503 | 61 | 125 | 4.0 | 5.0 | 0.00 | 0.00 | 0.00 | 38 | 1025.5 |
| 20260506211003 | 62 | 124 | 4.0 | 6.0 | 0.00 | 0.00 | 0.00 | 37 | 1025.5 |
| 20260506210524 | 62 | 119 | 4.0 | 6.0 | 0.00 | 0.00 | 0.00 | 37 | 1025.4 |
| 20260506210004 | 62 | 118 | 3.0 | 5.0 | 0.00 | 0.00 | 0.00 | 37 | 1025.4 |
| 20260506205503 | 62 | 109 | 4.0 | 6.0 | 0.00 | 0.00 | 0.00 | 38 | 1025.4 |
| 20260506205003 | 62 | 104 | 5.0 | 7.0 | 0.00 | 0.00 | 0.00 | 37 | 1025.3 |
| 20260506204503 | 62 | 105 | 4.0 | 7.0 | 0.00 | 0.00 | 0.00 | 37 | 1025.3 |
| 20260506204003 | 62 | 107 | 3.0 | 6.0 | 0.00 | 0.00 | 0.00 | 37 | 1025.4 |
| 20260506203503 | 62 | 105 | 3.0 | 6.0 | 0.00 | 0.00 | 0.00 | 37 | 1025.2 |
| 20260506203003 | 62 | 105 | 4.0 | 6.0 | 0.00 | 0.00 | 0.00 | 37 | 1025.4 |
| 20260506202524 | 62 | 107 | 3.0 | 5.0 | 0.00 | 0.00 | 0.00 | 37 | 1025.4 |
| 20260506202003 | 62 | 107 | 3.0 | 5.0 | 0.00 | 0.00 | 0.00 | 37 | 1025.3 |
| 20260506201503 | 62 | 108 | 3.0 | 5.0 | 0.00 | 0.00 | 0.00 | 37 | 1025.3 |
| 20260506201003 | 62 | 105 | 2.0 | 4.0 | 0.00 | 0.00 | 0.00 | 37 | 1025.1 |
| 20260506200504 | 62 | 102 | 2.0 | 4.0 | 0.00 | 0.00 | 0.00 | 37 | 1025.1 |
| 20260506200004 | 62 | 105 | 2.0 | 4.0 | 0.00 | 0.00 | 0.00 | 37 | 1025.0 |
| 20260506195503 | 62 | 106 | 2.0 | 4.0 | 0.00 | 0.00 | 0.00 | 37 | 1025.1 |
| 20260506195003 | 62 | 109 | 2.0 | 4.0 | 0.00 | 0.00 | 0.00 | 37 | 1025.1 |
| 20260506194503 | 63 | 107 | 2.0 | 4.0 | 0.00 | 0.00 | 0.00 | 37 | 1025.0 |
| 20260506194003 | 63 | 103 | 3.0 | 6.0 | 0.00 | 0.00 | 0.00 | 37 | 1025.0 |
| 20260506193503 | 63 | 107 | 3.0 | 6.0 | 0.00 | 0.00 | 0.00 | 37 | 1024.9 |
| 20260506193003 | 63 | 117 | 3.0 | 5.0 | 0.00 | 0.00 | 0.00 | 36 | 1025.0 |
| 20260506192503 | 63 | 117 | 3.0 | 5.0 | 0.00 | 0.00 | 0.00 | 36 | 1025.0 |
| 20260506192003 | 64 | 109 | 3.0 | 6.0 | 0.00 | 0.00 | 0.00 | 36 | 1025.0 |
| 20260506191503 | 64 | 105 | 4.0 | 6.0 | 0.00 | 0.00 | 0.00 | 36 | 1025.0 |
| 20260506191003 | 64 | 108 | 4.0 | 6.0 | 0.00 | 0.00 | 0.00 | 35 | 1024.7 |
| 20260506190503 | 64 | 113 | 3.0 | 5.0 | 0.00 | 0.00 | 0.00 | 36 | 1025.1 |
| 20260506190003 | 65 | 119 | 3.0 | 5.0 | 0.00 | 0.00 | 0.00 | 35 | 1024.8 |
| 20260506185503 | 65 | 128 | 4.0 | 5.0 | 0.00 | 0.00 | 0.00 | 35 | 1024.8 |
| 20260506185003 | 65 | 129 | 4.0 | 6.0 | 0.00 | 0.00 | 0.00 | 34 | 1024.7 |
| 20260506184524 | 66 | 125 | 4.0 | 6.0 | 0.00 | 0.00 | 0.00 | 34 | 1024.8 |
| 20260506184003 | 66 | 125 | 4.0 | 6.0 | 0.00 | 0.00 | 0.00 | 34 | 1024.7 |
| 20260506183503 | 66 | 129 | 5.0 | 8.0 | 0.00 | 0.00 | 0.00 | 33 | 1025.0 |
| 20260506183005 | 66 | 132 | 5.0 | 9.0 | 0.00 | 0.00 | 0.00 | 33 | 1024.8 |
| 20260506182503 | 66 | 131 | 6.0 | 9.0 | 0.00 | 0.00 | 0.00 | 33 | 1024.6 |
| 20260506182024 | 66 | 128 | 6.0 | 10.0 | 0.00 | 0.00 | 0.00 | 33 | 1024.7 |
| 20260506181524 | 66 | 130 | 6.0 | 10.0 | 0.00 | 0.00 | 0.00 | 33 | 1024.8 |
| 20260506181003 | 66 | 130 | 5.0 | 8.0 | 0.00 | 0.00 | 0.00 | 33 | 1024.8 |
| 20260506180503 | 66 | 132 | 6.0 | 9.0 | 0.00 | 0.00 | 0.00 | 33 | 1025.0 |
| 20260506180004 | 66 | 136 | 6.0 | 9.0 | 0.00 | 0.00 | 0.00 | 33 | 1024.8 |
| 20260506175503 | 66 | 136 | 6.0 | 10.0 | 0.00 | 0.00 | 0.00 | 33 | 1024.9 |
| 20260506175024 | 67 | 134 | 6.0 | 10.0 | 0.00 | 0.00 | 0.00 | 33 | 1025.0 |
| 20260506174503 | 66 | 131 | 5.0 | 9.0 | 0.00 | 0.00 | 0.00 | 33 | 1024.8 |
| 20260506174003 | 66 | 124 | 4.0 | 6.0 | 0.00 | 0.00 | 0.00 | 33 | 1024.8 |
| 20260506173503 | 66 | 126 | 4.0 | 8.0 | 0.00 | 0.00 | 0.00 | 33 | 1025.0 |
| 20260506173024 | 66 | 137 | 5.0 | 9.0 | 0.00 | 0.00 | 0.00 | 33 | 1024.9 |
| 20260506172503 | 66 | 136 | 6.0 | 10.0 | 0.00 | 0.00 | 0.00 | 33 | 1025.1 |
| 20260506172024 | 66 | 132 | 6.0 | 10.0 | 0.00 | 0.00 | 0.00 | 32 | 1024.9 |
| 20260506171504 | 66 | 138 | 6.0 | 10.0 | 0.00 | 0.00 | 0.00 | 33 | 1025.0 |
| 20260506171003 | 66 | 138 | 6.0 | 11.0 | 0.00 | 0.00 | 0.00 | 33 | 1025.1 |
| 20260506170504 | 67 | 143 | 6.0 | 11.0 | 0.00 | 0.00 | 0.00 | 33 | 1025.1 |
| 20260506170003 | 67 | 147 | 6.0 | 13.0 | 0.00 | 0.00 | 0.00 | 33 | 1025.1 |
| 20260506165503 | 67 | 153 | 7.0 | 13.0 | 0.00 | 0.00 | 0.00 | 32 | 1025.1 |
| 20260506165003 | 67 | 152 | 6.0 | 12.0 | 0.00 | 0.00 | 0.00 | 33 | 1025.2 |
| 20260506164503 | 67 | 129 | 5.0 | 12.0 | 0.00 | 0.00 | 0.00 | 32 | 1025.1 |
| 20260506164003 | 67 | 147 | 4.0 | 9.0 | 0.00 | 0.00 | 0.00 | 32 | 1024.8 |
| 20260506163503 | 67 | 156 | 4.0 | 7.0 | 0.00 | 0.00 | 0.00 | 32 | 1025.0 |
| 20260506163003 | 68 | 143 | 4.0 | 7.0 | 0.00 | 0.00 | 0.00 | 32 | 1024.9 |
| 20260506162503 | 68 | 126 | 3.0 | 7.0 | 0.00 | 0.00 | 0.00 | 30 | 1025.0 |
| 20260506162004 | 68 | 121 | 4.0 | 9.0 | 0.00 | 0.00 | 0.00 | 30 | 1025.3 |
| 20260506161524 | 68 | 129 | 4.0 | 9.0 | 0.00 | 0.00 | 0.00 | 30 | 1025.1 |
| 20260506161003 | 67 | 126 | 3.0 | 7.0 | 0.00 | 0.00 | 0.00 | 31 | 1025.3 |
| 20260506160504 | 67 | 77 | 4.0 | 10.0 | 0.00 | 0.00 | 0.00 | 32 | 1024.9 |
| 20260506160003 | 67 | 66 | 4.0 | 10.0 | 0.00 | 0.00 | 0.00 | 32 | 1025.1 |
| 20260506155503 | 67 | 63 | 3.0 | 6.0 | 0.00 | 0.00 | 0.00 | 33 | 1025.1 |
| 20260506155003 | 67 | 169 | 3.0 | 5.0 | 0.00 | 0.00 | 0.00 | 33 | 1025.3 |
| 20260506154503 | 67 | 185 | 4.0 | 7.0 | 0.00 | 0.00 | 0.00 | 32 | 1025.4 |
| 20260506154003 | 67 | 194 | 4.0 | 7.0 | 0.00 | 0.00 | 0.00 | 33 | 1025.3 |
| 20260506153503 | 67 | 36 | 4.0 | 13.0 | 0.00 | 0.00 | 0.00 | 33 | 1025.2 |
| 20260506153003 | 67 | 50 | 4.0 | 13.0 | 0.00 | 0.00 | 0.00 | 32 | 1025.3 |
| 20260506152503 | 68 | 118 | 3.0 | 8.0 | 0.00 | 0.00 | 0.00 | 32 | 1025.6 |
| 20260506152003 | 67 | 165 | 3.0 | 9.0 | 0.00 | 0.00 | 0.00 | 32 | 1025.4 |
| 20260506151503 | 67 | 138 | 2.0 | 9.0 | 0.00 | 0.00 | 0.00 | 32 | 1025.7 |
| 20260506151003 | 68 | 30 | 3.0 | 9.0 | 0.00 | 0.00 | 0.00 | 32 | 1025.8 |
| 20260506150503 | 68 | 31 | 5.0 | 12.0 | 0.00 | 0.00 | 0.00 | 32 | 1025.6 |
| 20260506150003 | 68 | 44 | 5.0 | 13.0 | 0.00 | 0.00 | 0.00 | 31 | 1025.8 |
| 20260506145503 | 69 | 51 | 5.0 | 13.0 | 0.00 | 0.00 | 0.00 | 31 | 1026.0 |
| 20260506145003 | 69 | 52 | 5.0 | 12.0 | 0.00 | 0.00 | 0.00 | 32 | 1026.0 |
| 20260506144503 | 68 | 75 | 5.0 | 12.0 | 0.00 | 0.00 | 0.00 | 32 | 1026.1 |
| 20260506144003 | 68 | 103 | 6.0 | 12.0 | 0.00 | 0.00 | 0.00 | 32 | 1026.1 |
| 20260506143503 | 67 | 99 | 6.0 | 13.0 | 0.00 | 0.00 | 0.00 | 34 | 1026.2 |
| 20260506143003 | 68 | 98 | 6.0 | 18.0 | 0.00 | 0.00 | 0.00 | 33 | 1026.3 |
| 20260506142503 | 68 | 133 | 6.0 | 18.0 | 0.00 | 0.00 | 0.00 | 33 | 1026.4 |
| 20260506142003 | 67 | 139 | 4.0 | 11.0 | 0.00 | 0.00 | 0.00 | 33 | 1026.2 |
| 20260506141503 | 67 | 61 | 3.0 | 7.0 | 0.00 | 0.00 | 0.00 | 32 | 1026.6 |
| 20260506141024 | 67 | 108 | 6.0 | 15.0 | 0.00 | 0.00 | 0.00 | 33 | 1026.4 |
| 20260506140524 | 67 | 111 | 6.0 | 15.0 | 0.00 | 0.00 | 0.00 | 33 | 1026.5 |
| 20260506140003 | 67 | 74 | 3.0 | 8.0 | 0.00 | 0.00 | 0.00 | 33 | 1026.5 |
| 20260506135503 | 65 | 67 | 4.0 | 8.0 | 0.00 | 0.00 | 0.00 | 34 | 1026.4 |
| 20260506135003 | 65 | 64 | 5.0 | 12.0 | 0.00 | 0.00 | 0.00 | 35 | 1026.7 |
| 20260506134503 | 65 | 67 | 5.0 | 12.0 | 0.00 | 0.00 | 0.00 | 35 | 1026.6 |
| 20260506134003 | 64 | 76 | 5.0 | 11.0 | 0.00 | 0.00 | 0.00 | 36 | 1026.7 |
| 20260506133503 | 65 | 95 | 6.0 | 14.0 | 0.00 | 0.00 | 0.00 | 35 | 1026.7 |
| 20260506133003 | 65 | 109 | 7.0 | 14.0 | 0.00 | 0.00 | 0.00 | 35 | 1026.6 |
| 20260506132503 | 66 | 113 | 6.0 | 13.0 | 0.00 | 0.00 | 0.00 | 35 | 1026.8 |
| 20260506132003 | 65 | 135 | 5.0 | 10.0 | 0.00 | 0.00 | 0.00 | 35 | 1026.9 |
| 20260506131503 | 65 | 163 | 6.0 | 10.0 | 0.00 | 0.00 | 0.00 | 35 | 1026.7 |
| 20260506131003 | 65 | 166 | 6.0 | 13.0 | 0.00 | 0.00 | 0.00 | 35 | 1027.0 |
| 20260506130503 | 66 | 144 | 5.0 | 13.0 | 0.00 | 0.00 | 0.00 | 34 | 1027.1 |
| 20260506130004 | 67 | 86 | 3.0 | 8.0 | 0.00 | 0.00 | 0.00 | 33 | 1027.2 |
| 20260506125524 | 66 | 82 | 4.0 | 8.0 | 0.00 | 0.00 | 0.00 | 34 | 1027.1 |
| 20260506125003 | 66 | 98 | 5.0 | 10.0 | 0.00 | 0.00 | 0.00 | 34 | 1027.2 |
| 20260506124503 | 67 | 133 | 6.0 | 13.0 | 0.00 | 0.00 | 0.00 | 34 | 1027.4 |
| 20260506124004 | 66 | 144 | 5.0 | 13.0 | 0.00 | 0.00 | 0.00 | 35 | 1027.1 |
| 20260506123503 | 66 | 188 | 4.0 | 13.0 | 0.00 | 0.00 | 0.00 | 36 | 1027.2 |
| 20260506123003 | 65 | 270 | 4.0 | 11.0 | 0.00 | 0.00 | 0.00 | 36 | 1027.3 |
| 20260506122503 | 65 | 267 | 4.0 | 11.0 | 0.00 | 0.00 | 0.00 | 35 | 1027.4 |
| 20260506122003 | 65 | 283 | 3.0 | 8.0 | 0.00 | 0.00 | 0.00 | 36 | 1027.7 |
| 20260506121503 | 65 | 252 | 3.0 | 8.0 | 0.00 | 0.00 | 0.00 | 36 | 1027.7 |
| 20260506121003 | 64 | 205 | 4.0 | 9.0 | 0.00 | 0.00 | 0.00 | 37 | 1027.6 |
| 20260506120503 | 64 | 154 | 5.0 | 10.0 | 0.00 | 0.00 | 0.00 | 38 | 1027.9 |
| 20260506120024 | 64 | 156 | 5.0 | 10.0 | 0.00 | 0.00 | 0.00 | 38 | 1028.0 |
| 20260506115503 | 64 | 235 | 3.0 | 9.0 | 0.00 | 0.00 | 0.00 | 37 | 1027.8 |
| 20260506115024 | 64 | 358 | 3.0 | 8.0 | 0.00 | 0.00 | 0.00 | 39 | 1028.1 |
| 20260506114503 | 63 | 34 | 3.0 | 8.0 | 0.00 | 0.00 | 0.00 | 39 | 1027.7 |
| 20260506114003 | 63 | 138 | 4.0 | 9.0 | 0.00 | 0.00 | 0.00 | 39 | 1028.1 |
| 20260506113524 | 63 | 134 | 5.0 | 9.0 | 0.00 | 0.00 | 0.00 | 40 | 1027.9 |
| 20260506113003 | 62 | 124 | 5.0 | 8.0 | 0.00 | 0.00 | 0.00 | 40 | 1028.0 |
| 20260506112503 | 63 | 128 | 5.0 | 10.0 | 0.00 | 0.00 | 0.00 | 40 | 1028.1 |
| 20260506112003 | 63 | 133 | 5.0 | 10.0 | 0.00 | 0.00 | 0.00 | 41 | 1028.1 |
| 20260506111503 | 63 | 114 | 5.0 | 11.0 | 0.00 | 0.00 | 0.00 | 41 | 1028.1 |
| 20260506111003 | 64 | 104 | 4.0 | 11.0 | 0.00 | 0.00 | 0.00 | 40 | 1028.0 |
| 20260506110504 | 64 | 126 | 5.0 | 11.0 | 0.00 | 0.00 | 0.00 | 41 | 1028.3 |
| 20260506110003 | 63 | 119 | 7.0 | 11.0 | 0.00 | 0.00 | 0.00 | 41 | 1028.3 |
| 20260506105503 | 63 | 96 | 5.0 | 10.0 | 0.00 | 0.00 | 0.00 | 41 | 1028.0 |
| 20260506105003 | 62 | 109 | 5.0 | 11.0 | 0.00 | 0.00 | 0.00 | 43 | 1028.2 |
| 20260506104503 | 63 | 137 | 6.0 | 12.0 | 0.00 | 0.00 | 0.00 | 41 | 1028.2 |
| 20260506104003 | 63 | 153 | 5.0 | 12.0 | 0.00 | 0.00 | 0.00 | 41 | 1028.4 |
| 20260506103503 | 64 | 153 | 3.0 | 8.0 | 0.00 | 0.00 | 0.00 | 40 | 1028.2 |
| 20260506103003 | 63 | 136 | 4.0 | 11.0 | 0.00 | 0.00 | 0.00 | 42 | 1028.4 |
| 20260506102503 | 62 | 124 | 4.0 | 11.0 | 0.00 | 0.00 | 0.00 | 43 | 1028.3 |
| 20260506102003 | 62 | 70 | 4.0 | 9.0 | 0.00 | 0.00 | 0.00 | 43 | 1028.5 |
| 20260506101524 | 62 | 84 | 4.0 | 9.0 | 0.00 | 0.00 | 0.00 | 44 | 1028.4 |
| 20260506101003 | 62 | 125 | 5.0 | 11.0 | 0.00 | 0.00 | 0.00 | 43 | 1028.6 |
| 20260506100503 | 61 | 157 | 6.0 | 11.0 | 0.00 | 0.00 | 0.00 | 44 | 1028.7 |
| 20260506100003 | 61 | 170 | 6.0 | 11.0 | 0.00 | 0.00 | 0.00 | 46 | 1028.4 |
| 20260506095503 | 61 | 142 | 6.0 | 13.0 | 0.00 | 0.00 | 0.00 | 45 | 1028.6 |
| 20260506095024 | 61 | 117 | 5.0 | 14.0 | 0.00 | 0.00 | 0.00 | 46 | 1028.6 |
| 20260506094503 | 60 | 127 | 5.0 | 14.0 | 0.00 | 0.00 | 0.00 | 46 | 1028.5 |
| 20260506094003 | 60 | 143 | 7.0 | 14.0 | 0.00 | 0.00 | 0.00 | 48 | 1028.5 |
| 20260506093503 | 60 | 131 | 7.0 | 14.0 | 0.00 | 0.00 | 0.00 | 47 | 1028.5 |
| 20260506093003 | 60 | 107 | 5.0 | 12.0 | 0.00 | 0.00 | 0.00 | 48 | 1028.4 |
| 20260506092503 | 61 | 133 | 5.0 | 10.0 | 0.00 | 0.00 | 0.00 | 48 | 1028.4 |
| 20260506092003 | 59 | 143 | 6.0 | 14.0 | 0.00 | 0.00 | 0.00 | 50 | 1028.5 |
| 20260506091503 | 60 | 130 | 6.0 | 14.0 | 0.00 | 0.00 | 0.00 | 49 | 1028.2 |
| 20260506091003 | 60 | 121 | 5.0 | 10.0 | 0.00 | 0.00 | 0.00 | 50 | 1028.3 |
| 20260506090503 | 60 | 132 | 5.0 | 10.0 | 0.00 | 0.00 | 0.00 | 50 | 1028.4 |